📊 Raw Sensor Data
Showing records 44701 to 44725 of 85,040 total
| ID | Distance (ft) | Battery V | Battery A | Int Temp (°F) | Int Humid (%) | Ext Temp (°F) | Solar V | RSSI | SNR | Time Stamp |
|---|---|---|---|---|---|---|---|---|---|---|
| 40352 | 16.1 | 3.95 | -5 | 50 | 42 | 51 | 0.00 | -69 | 8 | 05/12/2025 02:45 AM |
| 40351 | 16.1 | 3.88 | -5 | 49 | 42 | 50 | 0.00 | -68 | 7 | 05/12/2025 02:30 AM |
| 40350 | 16.1 | 3.95 | -5 | 49 | 42 | 50 | 0.10 | -70 | 8 | 05/12/2025 02:15 AM |
| 40349 | 16.1 | 3.88 | -5 | 49 | 42 | 50 | 0.10 | -71 | 8 | 05/12/2025 02:00 AM |
| 40348 | 16.1 | 3.95 | -5 | 50 | 43 | 51 | 0.00 | -70 | 8 | 05/12/2025 01:45 AM |
| 40347 | 16.1 | 3.89 | -5 | 50 | 43 | 51 | 0.00 | -68 | 8 | 05/12/2025 01:30 AM |
| 40346 | 16.1 | 3.89 | -5 | 51 | 42 | 52 | 0.00 | -68 | 8 | 05/12/2025 01:15 AM |
| 40345 | 16.1 | 3.89 | -5 | 52 | 42 | 53 | 0.00 | -69 | 8 | 05/12/2025 01:00 AM |
| 40344 | 16.1 | 3.89 | -5 | 52 | 43 | 53 | 0.00 | -69 | 8 | 05/12/2025 12:45 AM |
| 40343 | 16.0 | 3.95 | -5 | 51 | 43 | 53 | 0.00 | -69 | 8 | 05/12/2025 12:30 AM |
| 40342 | 16.1 | 3.89 | -5 | 52 | 43 | 52 | 0.10 | -69 | 8 | 05/12/2025 12:15 AM |
| 40341 | 16.1 | 3.89 | -5 | 52 | 43 | 54 | 0.00 | -70 | 8 | 05/12/2025 12:00 AM |
| 40340 | 16.1 | 3.95 | -5 | 52 | 43 | 53 | 0.00 | -68 | 8 | 05/11/2025 11:45 PM |
| 40339 | 16.1 | 3.89 | -5 | 52 | 43 | 53 | 0.00 | -68 | 7 | 05/11/2025 11:30 PM |
| 40338 | 16.1 | 3.95 | -5 | 53 | 43 | 54 | 0.00 | -70 | 8 | 05/11/2025 11:15 PM |
| 40337 | 16.1 | 3.89 | -5 | 53 | 43 | 54 | 0.00 | -69 | 8 | 05/11/2025 11:00 PM |
| 40336 | 16.1 | 3.96 | -5 | 53 | 43 | 54 | 0.00 | -68 | 8 | 05/11/2025 10:45 PM |
| 40335 | 16.1 | 3.89 | -5 | 53 | 44 | 54 | 0.00 | -68 | 8 | 05/11/2025 10:30 PM |
| 40334 | 16.0 | 3.89 | -5 | 53 | 44 | 54 | 0.00 | -68 | 8 | 05/11/2025 10:15 PM |
| 40333 | 16.1 | 3.96 | -5 | 53 | 45 | 54 | 0.00 | -68 | 8 | 05/11/2025 10:00 PM |
| 40332 | 16.1 | 3.89 | -5 | 54 | 45 | 55 | 0.00 | -68 | 8 | 05/11/2025 09:45 PM |
| 40331 | 16.1 | 3.89 | -5 | 55 | 46 | 55 | 0.00 | -70 | 8 | 05/11/2025 09:15 PM |
| 40330 | 16.1 | 3.96 | -5 | 55 | 47 | 55 | 0.00 | -67 | 8 | 05/11/2025 09:00 PM |
| 40329 | 16.1 | 3.89 | -5 | 55 | 48 | 56 | 0.00 | -69 | 8 | 05/11/2025 08:45 PM |
| 40328 | 16.1 | 3.89 | -5 | 56 | 49 | 56 | 0.00 | -67 | 8 | 05/11/2025 08:30 PM |